User: anonymous   Login
Location: Unspecified
(0.0000°N, 0.0000°E)
Time: 23:20:33
(UTC+00:00)
Language:

ISIS 1 - Orbit

View from above orbital plane
View from above orbital plane
View from above satellite
View from above satellite

Ground track
Ground track

The orbit data is extracted from the following two-line orbital elements,

1 03669U 69009A   23083.58950542  .00000508  00000-0  34624-3 0  9997
2 03669  88.4087 274.3194 1712090 110.4247 268.8480 11.29662661226422
Epoch (UTC): 24 March 2023 14:08:53
Eccentricity: 0.1712090
inclination: 88.4087°
perigee height: 575 km
apogee height: 3448 km
right ascension of ascending node: 274.3194°
argument of perigee: 110.4247°
revolutions per day: 11.29662661
mean anomaly at epoch: 268.8480°
orbit number at epoch: 22642

The dashed part of the orbit path shows where the satellite is in the earth's shadow,  

DLR